TimeMDT,TemperatureF,Dew PointF,Humidity,Sea Level PressureIn,VisibilityMPH,Wind Direction,Wind SpeedMPH,Gust SpeedMPH,PrecipitationIn,Events,Conditions,WindDirDegrees,DateUTC
12:53 AM,66.0,14.0,13,29.62,10.0,West,11.5,19.6,N/A,,Clear,280,2013-05-24 06:53:00
1:53 AM,64.9,15.1,15,29.65,10.0,West,13.8,23.0,N/A,,Clear,280,2013-05-24 07:53:00
2:53 AM,62.1,16.0,17,29.68,10.0,West,12.7,20.7,N/A,,Clear,280,2013-05-24 08:53:00
3:53 AM,62.1,19.0,19,29.71,10.0,West,12.7,23.0,N/A,,Clear,260,2013-05-24 09:53:00
4:53 AM,57.0,23.0,27,29.77,10.0,West,5.8,17.3,N/A,,Clear,280,2013-05-24 10:53:00
5:53 AM,53.1,24.1,32,29.84,10.0,NW,4.6,-,N/A,,Clear,310,2013-05-24 11:53:00
6:53 AM,52.0,26.1,37,29.89,10.0,Variable,3.5,-,N/A,,Clear,0,2013-05-24 12:53:00
7:53 AM,55.9,28.0,34,29.91,10.0,NNE,8.1,-,N/A,,Clear,20,2013-05-24 13:53:00
8:53 AM,57.9,28.9,33,29.93,10.0,East,6.9,-,N/A,,Clear,100,2013-05-24 14:53:00
9:53 AM,61.0,28.0,29,29.93,10.0,East,4.6,-,N/A,,Clear,90,2013-05-24 15:53:00
10:53 AM,64.0,26.1,24,29.90,10.0,SSE,3.5,-,N/A,,Clear,150,2013-05-24 16:53:00
11:53 AM,66.0,24.1,20,29.89,10.0,Calm,Calm,-,N/A,,Clear,0,2013-05-24 17:53:00
12:53 PM,70.0,21.9,16,29.86,10.0,Variable,4.6,-,N/A,,Clear,0,2013-05-24 18:53:00
1:53 PM,73.0,19.9,14,29.83,10.0,SW,11.5,17.3,N/A,,Clear,230,2013-05-24 19:53:00
2:53 PM,73.9,21.0,14,29.82,10.0,WSW,10.4,20.7,N/A,,Clear,250,2013-05-24 20:53:00
3:53 PM,75.0,19.9,13,29.80,10.0,West,9.2,17.3,N/A,,Clear,280,2013-05-24 21:53:00
4:53 PM,75.0,19.0,12,29.79,10.0,Variable,4.6,-,N/A,,Clear,0,2013-05-24 22:53:00
5:53 PM,75.9,18.0,11,29.79,10.0,Calm,Calm,-,N/A,,Clear,0,2013-05-24 23:53:00
6:53 PM,75.0,17.1,11,29.78,10.0,WNW,4.6,-,N/A,,Clear,300,2013-05-25 00:53:00
7:53 PM,72.0,19.0,13,29.78,10.0,Calm,Calm,-,N/A,,Clear,0,2013-05-25 01:53:00
8:53 PM,63.0,32.0,31,29.80,10.0,Calm,Calm,-,N/A,,Clear,0,2013-05-25 02:53:00
9:53 PM,60.1,30.9,33,29.82,10.0,West,4.6,-,N/A,,Clear,280,2013-05-25 03:53:00
10:53 PM,57.9,28.9,33,29.83,10.0,NNW,5.8,-,N/A,,Clear,330,2013-05-25 04:53:00
11:53 PM,55.9,27.0,33,29.81,10.0,NNW,3.5,-,N/A,,Clear,330,2013-05-25 05:53:00